[[{"header":{"parameterUnit":"m.s-1","parameterCategory":1,"la1":30.2992,"la2":30.254,"lo1":-89.0895,"lo2":-89.0443,"dy":0.0025,"dx":0.0025,"nx":19,"ny":19,"refTime":"2026-05-22T09:00:00:Z","depth":0,"parameterNumber":2,"parameterNumberName":"U-component_of_WINDS"},"data":[0,0,0,-0.533,-0.5332,-0.541,-0.541,-0.5496,-0.5496,0,0,0,0,0,0,0,0,0,0,0,-0.5295,-0.5295,-0.533,-0.5332,-0.541,-0.541,-0.5496,-0.5496,0,0,0,0,0,0,0,0,0,0,0,-0.5295,-0.5295,-0.5296,-0.5332,-0.541,-0.541,-0.5495,-0.5442,0,0,0,0,0,0,0,0,0,0,-0.5369,-0.5324,-0.5295,-0.5296,-0.5332,-0.541,-0.541,-0.544,-0.5446,-0.5453,0,-0.5454,0,-0.5476,-0.5501,-0.5501,0,0,0,-0.5341,-0.5319,-0.5351,-0.5296,-0.5333,-0.541,-0.5377,-0.5443,-0.545,-0.546,-0.5456,-0.5459,-0.5478,-0.5501,-0.5502,-0.5511,-0.551,0,0,-0.5337,-0.5303,-0.5347,-0.5355,-0.5339,-0.5375,-0.538,-0.5447,-0.5441,-0.5456,-0.5462,-0.5479,-0.5502,-0.5502,-0.5511,-0.5511,0,0,0,-0.5318,-0.53,-0.533,-0.5351,-0.5366,-0.5377,-0.5382,-0.5438,-0.5451,-0.5463,-0.548,-0.5502,-0.5503,-0.5512,-0.5511,-0.5459,0,0,0,-0.5316,-0.5289,-0.5328,-0.5308,-0.5364,-0.5402,-0.5371,-0.5446,-0.5455,-0.548,-0.5502,-0.5504,-0.5512,-0.5511,-0.5461,-0.5439,0,0,0,-0.5294,-0.5287,-0.5294,-0.5306,-0.5339,-0.5402,-0.5419,-0.5448,-0.5465,-0.5501,-0.5504,-0.5512,-0.5511,-0.5463,-0.5443,-0.5433,0,0,0,-0.5262,-0.5245,-0.5292,-0.5282,-0.5338,-0.5368,-0.5419,-0.5444,-0.5469,-0.5502,-0.5512,-0.5511,-0.5464,-0.5445,-0.5435,-0.5418,-0.5408,0,0,-0.5223,-0.524,-0.5236,-0.5281,-0.5294,-0.5359,-0.5367,-0.5422,-0.5457,-0.5492,-0.5492,-0.546,-0.5443,-0.5433,-0.5362,-0.5353,0,0,0,-0.5213,-0.521,-0.5221,-0.5243,-0.5284,-0.5319,-0.5377,-0.5398,-0.543,-0.5467,-0.5455,-0.5446,-0.5442,-0.5435,-0.5428,-0.5427,-0.5506,-0.5507,-0.5507,-0.5108,-0.5154,-0.5153,-0.5209,-0.523,-0.5291,-0.5314,-0.5353,-0.5393,-0.539,-0.54,-0.5351,-0.5342,-0.5336,-0.5335,-0.5395,-0.5395,-0.5395,-0.5394,-0.5056,-0.506,-0.5115,-0.5133,-0.5183,-0.52,-0.5261,-0.5289,-0.5314,-0.5346,-0.5344,-0.5375,-0.5326,-0.5327,-0.5391,-0.5392,-0.5392,-0.5392,-0.5393,-0.4992,-0.5002,-0.5029,-0.5067,-0.5093,-0.5152,-0.5174,-0.5219,-0.5262,-0.5261,-0.5278,-0.5279,-0.5286,-0.5266,-0.5266,-0.5265,-0.5265,-0.5265,-0.5265,-0.4916,-0.4947,-0.4959,-0.5004,-0.5026,-0.5061,-0.5126,-0.5149,-0.5188,-0.5219,-0.522,-0.5261,-0.5312,-0.5324,-0.5263,-0.5263,-0.5263,-0.5264,-0.5264,-0.4845,-0.4869,-0.4886,-0.4908,-0.4967,-0.4992,-0.505,-0.5096,-0.5122,-0.5133,-0.5176,-0.5206,-0.5227,-0.5233,-0.5243,-0.5165,-0.5165,-0.5165,-0.5165,-0.4791,-0.4807,-0.4836,-0.4869,-0.4907,-0.4962,-0.4985,-0.5037,-0.5095,-0.5115,-0.5134,-0.5152,-0.5156,-0.5174,-0.5182,-0.5192,-0.5102,-0.5102,-0.5102,-0.4751,-0.4772,-0.478,-0.4836,-0.4887,-0.4931,-0.4954,-0.4993,-0.5064,-0.5101,-0.5133,-0.5136,-0.5165,-0.5172,-0.5207,-0.5217,-0.5237,0,0]},{"header":{"parameterUnit":"m.s-1","parameterCategory":1,"la1":30.2992,"la2":30.254,"lo1":-89.0895,"lo2":-89.0443,"dy":0.0025,"dx":0.0025,"nx":19,"ny":19,"refTime":"2026-05-22T09:00:00:Z","depth":0,"parameterNumber":3,"parameterNumberName":"V-component_of_WINDS"},"data":[0,0,0,5.6358,5.6359,5.6396,5.6397,5.6453,5.6454,0,0,0,0,0,0,0,0,0,0,0,5.6355,5.6356,5.6358,5.6359,5.6396,5.6397,5.6453,5.6454,0,0,0,0,0,0,0,0,0,0,0,5.6355,5.6356,5.6356,5.6359,5.6396,5.6397,5.6453,5.6421,0,0,0,0,0,0,0,0,0,0,5.6383,5.6389,5.6355,5.6356,5.6359,5.6396,5.6397,5.6419,5.6423,5.644,0,5.6461,0,5.6458,5.6458,5.6458,0,0,0,5.6352,5.6386,5.6389,5.6357,5.636,5.6396,5.6378,5.6421,5.6425,5.6445,5.6462,5.6463,5.6459,5.6459,5.6459,5.6586,5.6587,0,0,5.635,5.6366,5.6386,5.6392,5.639,5.6377,5.6379,5.6423,5.6441,5.6462,5.6465,5.646,5.6459,5.646,5.6585,5.6586,0,0,0,5.6349,5.6365,5.6366,5.639,5.6396,5.6378,5.6381,5.6439,5.6438,5.6465,5.6461,5.6459,5.646,5.6584,5.6585,5.6642,0,0,0,5.6347,5.6364,5.6365,5.6375,5.6395,5.6419,5.6396,5.6435,5.644,5.6461,5.6459,5.6461,5.6583,5.6585,5.6639,5.6666,0,0,0,5.635,5.6364,5.6372,5.6376,5.6393,5.6418,5.6419,5.6436,5.6438,5.6458,5.6461,5.6582,5.6584,5.6635,5.6661,5.67,0,0,0,5.6356,5.6425,5.6374,5.6448,5.6393,5.6454,5.6419,5.6464,5.6489,5.646,5.6583,5.6585,5.6634,5.6657,5.6697,5.6735,5.6753,0,0,5.6451,5.6437,5.6479,5.6434,5.6509,5.6447,5.6529,5.6537,5.6525,5.6565,5.6568,5.664,5.666,5.67,5.6855,5.687,0,0,0,5.6514,5.6544,5.6561,5.6585,5.6593,5.66,5.6595,5.6597,5.663,5.655,5.6667,5.6678,5.6701,5.6718,5.673,5.6746,5.6595,5.6595,5.6594,5.667,5.6649,5.6716,5.6699,5.6723,5.6715,5.673,5.6731,5.6706,5.6734,5.6744,5.6841,5.6862,5.6871,5.6888,5.6766,5.6766,5.6766,5.6766,5.6803,5.684,5.6802,5.6852,5.6829,5.6871,5.6864,5.6843,5.6876,5.6833,5.6851,5.6802,5.6888,5.6901,5.677,5.677,5.6769,5.6769,5.6768,5.69,5.6913,5.6915,5.6944,5.6969,5.695,5.6982,5.6961,5.6941,5.696,5.6966,5.6965,5.6957,5.6965,5.6965,5.6966,5.6966,5.6966,5.6966,5.6998,5.6997,5.7028,5.7039,5.7049,5.706,5.7049,5.7058,5.7062,5.7043,5.7043,5.7011,5.6902,5.6872,5.6971,5.697,5.697,5.6969,5.6969,5.7134,5.7099,5.7146,5.7156,5.7164,5.7187,5.716,5.7178,5.7183,5.7198,5.7162,5.7086,5.7069,5.7059,5.7034,5.7169,5.7169,5.7169,5.717,5.7213,5.7203,5.7243,5.7259,5.7273,5.7251,5.73,5.7291,5.7276,5.7277,5.7255,5.7221,5.7212,5.72,5.7187,5.7163,5.7328,5.7329,5.7329,5.7293,5.7283,5.733,5.7315,5.7319,5.7321,5.7365,5.7383,5.7359,5.7335,5.7275,5.7268,5.7214,5.7198,5.717,5.715,5.7106,0,0]}]]